K5EBQ Weather Reports


time (UTC)temp
F
wind
direction
speed
knots
gust
knots
rain 1hr
in
rain 24hr
in
rain mn
in
humidity
%
barometer
mb
20260505000008 78 227 2.6 8.7 0.00 0.00 0.00 70 1008.0
20260504234507 78 215 3.5 8.7 0.00 0.00 0.00 69 1008.0
20260504233010 79 191 2.6 20.0 0.00 0.00 0.00 68 1008.3
20260504231503 79 169 2.6 17.4 0.00 0.00 0.00 69 1008.4
20260504230003 79 177 0.9 29.5 0.00 0.00 0.00 68 1008.5
20260504224500 80 170 3.5 35.6 0.00 0.00 0.00 67 1008.6
20260504223100 80 205 7.0 20.0 0.00 0.00 0.00 67 1008.7
20260504221558 80 107 2.6 26.1 0.00 0.00 0.00 66 1008.9
20260504220118 80 225 8.7 21.7 0.00 0.00 0.00 64 1008.9
20260504214558 81 224 8.7 35.6 0.00 0.00 0.00 61 1009.1
20260504213059 81 183 28.7 91.2 0.00 0.00 0.00 61 1009.2
20260504211556 82 227 9.6 22.6 0.00 0.00 0.00 60 1009.3
20260504210053 82 195 0.0 25.2 0.00 0.00 0.00 59 1009.4
20260504204550 83 206 10.4 38.2 0.00 0.00 0.00 58 1009.7
20260504203050 82 209 16.5 27.8 0.00 0.00 0.00 58 1009.7
20260504201548 83 206 7.0 25.2 0.00 0.00 0.00 58 1010.1
20260504200050 83 189 1.7 33.0 0.00 0.00 0.00 58 1010.5
20260504194546 83 171 15.6 41.7 0.00 0.00 0.00 55 1010.6
20260504193041 81 217 18.2 63.4 0.00 0.00 0.00 58 1010.9
20260504191551 82 202 11.3 25.2 0.00 0.00 0.00 57 1011.1
20260504190043 82 222 9.6 20.9 0.00 0.00 0.00 57 1011.2
20260504184543 82 235 27.8 62.6 0.00 0.00 0.00 57 1011.5
20260504183041 82 238 23.5 36.5 0.00 0.00 0.00 56 1011.6
20260504181531 81 157 16.5 40.8 0.00 0.00 0.00 58 1011.7
20260504180029 81 192 11.3 26.9 0.00 0.00 0.00 58 1011.9
20260504174526 81 205 21.7 27.8 0.00 0.00 0.00 58 1012.1
20260504173026 80 146 13.0 25.2 0.00 0.00 0.00 58 1012.3
20260504171521 79 227 9.6 28.7 0.00 0.00 0.00 61 1012.7
20260504150103 75 225 1.7 40.8 0.00 0.00 0.00 66 1013.6
20260504081506 61 191 0.0 0.0 0.00 0.00 0.00 81 1014.0
20260504044546 64 191 0.0 0.0 0.00 0.00 0.00 72 1016.2
20260504043039 65 191 0.0 0.0 0.00 0.00 0.00 70 1016.1
20260504041537 66 191 0.0 0.0 0.00 0.00 0.00 67 1016.1
20260504040041 67 191 0.0 0.0 0.00 0.00 0.00 65 1016.3
20260504034553 67 191 0.0 0.0 0.00 0.00 0.00 63 1016.2
20260504033041 68 191 0.0 0.0 0.00 0.00 0.00 62 1016.3
20260504031536 68 191 0.0 0.0 0.00 0.00 0.00 61 1016.2
20260504030043 69 186 0.0 0.0 0.00 0.00 0.00 60 1016.1
20260504024535 69 127 0.0 0.0 0.00 0.00 0.00 58 1015.8
20260504023036 70 169 0.0 0.0 0.00 0.00 0.00 56 1015.7
20260504021534 71 223 0.0 0.0 0.00 0.00 0.00 55 1015.8
20260504020037 71 98 0.0 0.0 0.00 0.00 0.00 54 1015.6
20260504014541 71 183 0.0 0.0 0.00 0.00 0.00 53 1015.6
20260504013033 72 157 0.0 0.0 0.00 0.00 0.00 53 1015.4
20260504011531 73 234 0.0 0.0 0.00 0.00 0.00 52 1015.3
20260504010031 73 161 0.0 0.0 0.00 0.00 0.00 51 1015.3
20260504004532 74 122 0.0 0.0 0.00 0.00 0.00 49 1015.2
20260504003034 75 121 0.0 0.0 0.00 0.00 0.00 48 1015.3
20260504001529 76 170 0.0 0.0 0.00 0.00 0.00 46 1015.3